Location: Baia Mare
(47.6567°N, 23.5850°E)
Time: 17:33:21
(UTC+03:00)

ISS - Pass Details

Date: 30 May 2018
Orbit: 403 x 408 km, 51.6° (Epoch: 23 September)

Event Time Altitude Azimuth Distance (km) Brightness Sun altitude
Rises 21:41:05 0° 279° (W) 2,331 1.2 -4.5°
Reaches altitude 10° 21:43:16 10° 288° (WNW) 1,468 0.3 -4.8°
Maximum altitude 21:46:23 39° 359° (N) 627 -2.4 -5.2°
Drops below altitude 10° 21:49:29 10° 70° (ENE) 1,463 -1.3 -5.6°
Enters shadow 21:52:28 -3° 80° (E) 2,649 -0.1 -6.0°
